Voltar ao catálogo

STARLINK-11420

AtivoComunicaçõesVLEO
NORAD 62591·PAYLOAD·🇺🇸 United States

Lançado Jan 13, 2025 de Cape Canaveral Space Force Station

Loading…

Próximas Passagens (próximas 24 horas)

TLE

AtualizadoSource: CelesTrak SupGP

Época: Sep 15, 2026, 02:33 UTC

1 62591C 25008E   26258.10673611 -.00013034  00000+0 -10117-3 0  2589
2 62591  43.0009  64.5507 0001749 275.5269  67.6564 15.70860755    14

Acompanhe STARLINK-11420 em tempo real com AllMySat

Download on the App Store